Regional Weather Roundup
Issued by NWS

Home | Current Version | Previous Version | Text Only | Print | Product List | Glossary On
Versions: 1 2 3 4 5 6 7 8 9 10 11 12 13 14 15 16 17 18 19 20 21 22 23 24 25 26 27 28
000
ASUS45 KREV 220710
RWRNV
NEVADA REGIONAL WEATHER ROUNDUP
NATIONAL WEATHER SERVICE RENO NV
1200 AM PDT SUN APR 22 2018

NOTE: "FAIR" INDICATES FEW OR NO CLOUDS BELOW 12,000 FEET WITH NO
SIGNIFICANT WEATHER AND/OR OBSTRUCTIONS TO VISIBILITY.

NVZ001-003-004-220800-
WESTERN NEVADA

CITY           SKY/WX    TMP DP  RH WIND       PRES   REMARKS
RENO           PTCLDY    62  38  40 CALM      30.13S
CARSON CITY    FAIR      50  37  62 CALM      30.16S
MINDEN         FAIR      45  34  65 SE8       30.16F
SLIDE MTN        N/A     41  32  70 S6          N/A
FALLON         CLEAR     53  32  44 CALM      30.08F
LOVELOCK       CLEAR     47  32  56 E5        30.08F
HAWTHORNE      CLEAR     57  25  28 CALM      30.10F
$$

NVZ002-CAZ072-073-220800-
NORTHERN AND CENTRAL SIERRA

CITY           SKY/WX    TMP DP  RH WIND       PRES   REMARKS
S. LAKE TAHOE  CLEAR     43  37  79 S7        30.22F
TRUCKEE        CLEAR     39  36  87 CALM      30.23S
SQUAW VLY 8000   N/A     43  27  52 W3          N/A
BLUE CANYON    CLEAR     55  33  43 NE3       30.19F
MAMMOTH LAKES  FAIR      46  27  48 W8        30.26F
BRIDGEPORT     FAIR      40  28  62 CALM      30.24S
$$

NVZ030-031-036-220800-
NORTHERN NEVADA

CITY           SKY/WX    TMP DP  RH WIND       PRES   REMARKS
ELKO           CLEAR     44  32  62 CALM      30.15F
WINNEMUCCA     CLEAR     52  37  56 S12       30.09F
WENDOVER       CLEAR     53  30  41 W3        30.12S
$$

NVZ035-037-220800-
CENTRAL NEVADA

CITY           SKY/WX    TMP DP  RH WIND       PRES   REMARKS
ELY            CLEAR     37  20  50 S12       30.21S
EUREKA           N/A     39  31  72 SE5       30.19S
$$

NVZ013-014-220800-
SOUTH CENTRAL NEVADA

CITY           SKY/WX    TMP DP  RH WIND       PRES   REMARKS
TONOPAH        PTCLDY    52  23  32 N6        30.16S
$$

NVZ017-020-022-220800-
SOUTHERN NEVADA

CITY           SKY/WX    TMP DP  RH WIND       PRES   REMARKS
LAS VEGAS      PTCLDY    72  28  19 W6        29.98F
N. LAS VEGAS   PTCLDY    69  28  21 NW6       29.98F
NELLIS AFB     CLEAR     65  26  23 NE3       29.99R
HENDERSON      PTCLDY    66  29  24 S9        30.01F
MERCURY        CLEAR     58  17  20 E3        30.04S
$$




USA.gov is the U.S. government's official web portal to all federal, state and local government web resources and services.